KA7RLM Weather Reports


Display with metric or nautical units.
time (UTC)temp
F
wind
direction
speed
MPH
gust
MPH
rain 1hr
in
rain 24hr
in
rain mn
in
humidity
%
barometer
mb
20260505183034 59 172 3.0 5.0 0.00 0.00 0.00 80 1016.9
20260505182019 59 229 2.0 4.0 0.00 0.00 0.00 79 1016.9
20260505181022 58 225 3.0 5.0 0.00 0.00 0.00 79 1016.9
20260505180024 58 204 2.0 4.0 0.00 0.00 0.00 80 1016.9
20260505175029 58 208 3.0 4.0 0.00 0.00 0.00 80 1016.8
20260505174031 58 219 3.0 4.0 0.00 0.00 0.00 81 1016.8
20260505173016 58 185 3.0 4.0 0.00 0.00 0.00 81 1016.8
20260505172020 58 221 1.0 3.0 0.00 0.00 0.00 81 1016.7
20260505171023 58 166 1.0 4.0 0.00 0.00 0.00 82 1016.7
20260505170027 57 212 3.0 4.0 0.00 0.00 0.00 81 1016.6
20260505165111 57 232 2.0 4.0 0.00 0.00 0.00 82 1016.5
20260505164032 57 210 2.0 3.0 0.00 0.00 0.00 81 1016.4
20260505163018 57 249 3.0 4.0 0.00 0.00 0.00 82 1016.4
20260505162041 57 221 3.0 5.0 0.00 0.00 0.00 83 1016.4
20260505161038 57 181 2.0 3.0 0.00 0.00 0.00 84 1016.4
20260505153021 56 191 3.0 6.0 0.00 0.00 0.00 86 1016.3
20260505152044 56 189 1.0 4.0 0.00 0.00 0.00 87 1016.2
20260505151027 56 182 2.0 4.0 0.00 0.00 0.00 87 1016.2
20260505125023 55 217 3.0 5.0 0.00 0.00 0.00 88 1014.9
20260505124021 55 216 3.0 5.0 0.00 0.00 0.00 88 1014.9
20260505123018 55 215 2.0 4.0 0.00 0.00 0.00 89 1014.9
20260505122016 55 203 0.0 1.0 0.00 0.00 0.00 89 1014.7
20260505121026 55 0.0 0.0 0.00 0.00 0.00 89 1014.7
20260505120049 55 217 2.0 4.0 0.00 0.00 0.00 89 1014.7
20260505115032 55 180 1.0 3.0 0.00 0.00 0.00 89 1014.7
20260505114017 55 203 1.0 3.0 0.00 0.00 0.00 89 1014.7
20260505113100 55 185 1.0 3.0 0.00 0.00 0.00 89 1014.7
20260505112059 55 245 1.0 3.0 0.00 0.00 0.00 89 1014.7
20260505111016 55 159 2.0 4.0 0.00 0.00 0.00 89 1014.4
20260505102036 55 209 4.0 7.0 0.00 0.00 0.00 90 1014.4
20260505101019 55 206 3.0 5.0 0.00 0.00 0.00 90 1014.2
20260505100023 55 210 4.0 6.0 0.00 0.00 0.00 90 1014.2
20260505095025 55 188 2.0 4.0 0.00 0.00 0.00 90 1014.0
20260505094028 55 202 2.0 5.0 0.00 0.00 0.00 91 1013.9
20260505093032 55 203 1.0 3.0 0.00 0.00 0.00 91 1013.9
20260505092017 54 208 2.0 3.0 0.00 0.00 0.00 91 1013.9
20260505091020 54 215 1.0 4.0 0.00 0.00 0.00 92 1013.9
20260505090023 54 210 1.0 4.0 0.00 0.00 0.00 93 1013.9
20260505085020 54 189 1.0 3.0 0.00 0.00 0.00 94 1013.8
20260505084018 53 0.0 0.0 0.00 0.00 0.00 94 1013.7
20260505083017 53 0.0 0.0 0.00 0.00 0.00 92 1013.7
20260505082106 54 0.0 0.0 0.00 0.00 0.00 93 1013.7
20260505081030 53 0.0 0.0 0.00 0.00 0.00 92 1013.7
20260505080033 54 0.0 0.0 0.00 0.00 0.00 91 1013.5
20260505075030 54 191 0.0 2.0 0.00 0.00 0.00 91 1013.5
20260505074016 55 0.0 0.0 0.00 0.00 0.00 90 1013.5
20260505073039 55 0.0 2.0 0.00 0.00 0.00 89 1013.2
20260505072047 55 244 2.0 3.0 0.00 0.00 0.00 89 1013.2
20260505071025 55 203 2.0 3.0 0.00 0.00 0.00 88 1013.0
20260505070028 56 209 4.0 5.0 0.00 0.00 0.00 87 1012.9
20260505065026 56 202 4.0 6.0 0.00 0.00 0.00 87 1012.9
20260505064030 56 229 3.0 5.0 0.00 0.00 0.00 86 1012.8
20260505063053 56 204 2.0 4.0 0.00 0.00 0.00 86 1012.7
20260505062018 57 196 2.0 4.0 0.00 0.00 0.00 85 1012.5
20260505061022 57 256 3.0 4.0 0.00 0.00 0.00 84 1012.5
20260505060026 57 243 3.0 4.0 0.00 0.00 0.00 84 1012.3
20260505055029 58 214 3.0 4.0 0.00 0.00 0.00 83 1012.3
20260505054032 58 193 3.0 6.0 0.00 0.00 0.00 82 1012.2
20260505053029 58 240 3.0 4.0 0.00 0.00 0.00 81 1012.2
20260505052027 59 225 3.0 5.0 0.00 0.00 0.00 80 1012.2
20260505051105 59 247 2.0 3.0 0.00 0.00 0.00 79 1011.8
20260505041028 63 216 5.0 7.0 0.00 0.00 0.00 70 1011.2
20260505040032 64 185 4.0 5.0 0.00 0.00 0.00 69 1011.0
20260505035054 64 231 4.0 7.0 0.00 0.00 0.00 67 1010.9
20260505034058 65 235 5.0 8.0 0.00 0.00 0.00 66 1010.8
20260505033022 66 241 5.0 7.0 0.00 0.00 0.00 64 1010.7
20260505032040 67 247 6.0 8.0 0.00 0.00 0.00 62 1010.6
20260505031017 68 216 5.0 7.0 0.00 0.00 0.00 61 1010.4
20260505030015 70 237 5.0 9.0 0.00 0.00 0.00 58 1010.2
20260505025023 71 244 5.0 7.0 0.00 0.00 0.00 57 1010.1
20260505024021 72 227 6.0 9.0 0.00 0.00 0.00 55 1010.0
20260505023045 73 244 7.0 11.0 0.00 0.00 0.00 53 1009.9
20260505022109 74 224 5.0 8.0 0.00 0.00 0.00 52 1009.9
20260505021026 75 236 6.0 9.0 0.00 0.00 0.00 50 1009.8
20260505020030 77 226 6.0 10.0 0.00 0.00 0.00 48 1009.7
20260505015032 78 229 6.0 8.0 0.00 0.00 0.00 48 1009.7
20260505014018 78 238 5.0 9.0 0.00 0.00 0.00 47 1009.7
20260505013041 79 204 4.0 6.0 0.00 0.00 0.00 47 1009.7
20260505012023 79 230 6.0 9.0 0.00 0.00 0.00 47 1009.8
20260505011020 79 202 7.0 9.0 0.00 0.00 0.00 46 1009.8
20260505010018 79 217 6.0 9.0 0.00 0.00 0.00 46 1009.9
20260505005033 80 225 6.0 8.0 0.00 0.00 0.00 46 1009.8
20260505004019 80 246 6.0 9.0 0.00 0.00 0.00 46 1009.8
20260505003143 81 215 5.0 7.0 0.00 0.00 0.00 46 1009.8
20260505002025 81 238 5.0 7.0 0.00 0.00 0.00 45 1009.7
20260505001029 80 220 6.0 8.0 0.00 0.00 0.00 46 1009.7
20260505000027 80 216 4.0 7.0 0.00 0.00 0.00 46 1009.7
20260504235030 80 275 5.0 7.0 0.00 0.00 0.00 45 1009.7
20260504234032 80 216 4.0 5.0 0.00 0.00 0.00 45 1009.7
20260504233017 81 330 5.0 9.0 0.00 0.00 0.00 44 1009.7
20260504232021 80 192 4.0 6.0 0.00 0.00 0.00 44 1009.9
20260504231019 80 272 4.0 6.0 0.00 0.00 0.00 44 1009.9
20260504230017 81 247 5.0 8.0 0.00 0.00 0.00 43 1010.1
20260504225032 81 297 4.0 6.0 0.00 0.00 0.00 42 1010.2
20260504224039 81 250 4.0 6.0 0.00 0.00 0.00 43 1010.2
20260504223021 80 209 6.0 10.0 0.00 0.00 0.00 44 1010.2
20260504222019 80 226 6.0 10.0 0.00 0.00 0.00 45 1010.3
20260504221022 80 242 5.0 7.0 0.00 0.00 0.00 46 1010.3
20260504220045 80 335 4.0 6.0 0.00 0.00 0.00 46 1010.5
20260504215028 80 258 3.0 6.0 0.00 0.00 0.00 46 1010.5
20260504214025 79 346 4.0 6.0 0.00 0.00 0.00 46 1010.5
20260504213018 79 252 4.0 7.0 0.00 0.00 0.00 46 1010.6
20260504212020 79 359 5.0 7.0 0.00 0.00 0.00 45 1010.5
20260504211038 79 281 5.0 7.0 0.00 0.00 0.00 44 1010.6
20260504210047 79 241 3.0 6.0 0.00 0.00 0.00 44 1010.7
20260504205031 79 220 2.0 3.0 0.00 0.00 0.00 42 1010.7
20260504204016 79 248 5.0 7.0 0.00 0.00 0.00 43 1010.7
20260504203040 79 217 6.0 8.0 0.00 0.00 0.00 42 1010.9
20260504202023 78 249 4.0 7.0 0.00 0.00 0.00 43 1010.8
20260504201026 77 314 3.0 7.0 0.00 0.00 0.00 45 1011.0
20260504200036 77 308 3.0 5.0 0.00 0.00 0.00 45 1011.1
20260504195027 77 227 4.0 5.0 0.00 0.00 0.00 46 1011.1
20260504194031 76 281 3.0 6.0 0.00 0.00 0.00 48 1011.1
20260504193016 75 270 3.0 5.0 0.00 0.00 0.00 49 1011.2
20260504192018 75 259 4.0 7.0 0.00 0.00 0.00 49 1011.4
20260504191022 75 242 3.0 6.0 0.00 0.00 0.00 50 1011.4
20260504190024 74 244 3.0 5.0 0.00 0.00 0.00 50 1011.5
20260504185048 74 276 3.0 7.0 0.00 0.00 0.00 51 1011.6
20260504184113 73 266 3.0 6.0 0.00 0.00 0.00 52 1011.7